Weather WX

World > North America > United States > Oregon

Scappoose, Oregon Regional Weather

Lat: 45.75N, Lon: 122.88W
Wx Zone: ORZ006
Feedback

Scappoose, OR Regional Weather

Expires:201906160300;;137655
ASUS46 KPQR 160210
RWROR 

OREGON REGIONAL WEATHER ROUNDUP
NATIONAL WEATHER SERVICE PORTLAND OR
700 PM PDT SAT JUN 15 2019

NOTE: "FAIR" INDICATES FEW OR NO CLOUDS BELOW 12,000 FEET WITH
NO SIGNIFICANT WEATHER AND/OR OBSTRUCTIONS TO VISIBILITY.


ORZ001>013-160300-
NORTHWEST OREGON

  
CITY           SKY/WX    TMP DP  RH WIND       PRES   REMARKS
ASTORIA        CLOUDY    57  50  77 NW14      30.09S                  
TILLAMOOK      SUNNY     61  50  67 NW9G17    30.07F                  
NEWPORT        MOSUNNY   54  50  87 N23       30.08                   
PORTLAND       MOSUNNY   78  54  43 NW9       29.97F                  
VANCOUVER WA   SUNNY     77  54  44 NW12      29.97F                  
SCAPPOOSE      SUNNY     78  54  43 N14       29.97F                  
HILLSBORO      SUNNY     77  54  44 NW12      29.97F                  
AURORA         SUNNY     79  53  40 E6        29.98F                  
MCMINNVILLE    SUNNY     80  53  39 N8        29.97S                  
SALEM          SUNNY     77  53  43 NE7       29.97S                  
CORVALLIS      MOSUNNY   78  56  46 NW10      29.98S                  
EUGENE         PTSUNNY   78  52  40 N10       29.97F                  
$$


SKY/WX - Weather  TMP - Temperature  DP - Dew Point  RH - Relative Humidity
WIND - Wind Direction/Speed PRES - Barometric Pressure VSB - Visibility
WCI - Wind Chill Index E13G22 Wind - East Wind 13 mph/Gusts of 22 mph